Year,Month,Day,Hour,Minute,Value (Times are PST for temperature in C)
2021,04,27,00,00,-0.90
2021,04,27,00,01,-0.90
2021,04,27,00,02,-0.90
2021,04,27,00,03,-1.00
2021,04,27,00,04,-1.10
2021,04,27,00,05,-1.10
2021,04,27,00,06,-1.10
2021,04,27,00,07,-1.10
2021,04,27,00,08,-1.10
2021,04,27,00,09,-1.10
2021,04,27,00,10,-1.10
2021,04,27,00,11,-1.10
2021,04,27,00,12,-1.10
2021,04,27,00,13,-1.10
2021,04,27,00,14,-1.10
2021,04,27,00,15,-1.20
2021,04,27,00,16,-1.20
2021,04,27,00,17,-1.20
2021,04,27,00,18,-1.20
2021,04,27,00,19,-1.20
2021,04,27,00,20,-1.20
2021,04,27,00,21,-1.30
2021,04,27,00,22,-1.30
2021,04,27,00,23,-1.30
2021,04,27,00,24,-1.30
2021,04,27,00,25,-1.40
2021,04,27,00,26,-1.40
2021,04,27,00,27,-1.40
2021,04,27,00,28,-1.40
2021,04,27,00,29,-1.50
2021,04,27,00,30,-1.50
2021,04,27,00,31,-1.50
2021,04,27,00,32,-1.50
2021,04,27,00,33,-1.40
2021,04,27,00,34,-1.40
2021,04,27,00,35,-1.40
2021,04,27,00,36,-1.40
2021,04,27,00,37,-1.40
2021,04,27,00,38,-1.40
2021,04,27,00,39,-1.40
2021,04,27,00,40,-1.40
2021,04,27,00,41,-1.40
2021,04,27,00,42,-1.40
2021,04,27,00,43,-1.40
2021,04,27,00,44,-1.40
2021,04,27,00,45,-1.40
2021,04,27,00,46,-1.40
2021,04,27,00,47,-1.40
2021,04,27,00,48,-1.50
2021,04,27,00,49,-1.50
2021,04,27,00,50,-1.50
2021,04,27,00,51,-1.50
2021,04,27,00,52,-1.60
2021,04,27,00,53,-1.60
2021,04,27,00,54,-1.60
2021,04,27,00,55,-1.60
2021,04,27,00,56,-1.60
2021,04,27,00,57,-1.50
2021,04,27,00,58,-1.60
2021,04,27,00,59,-1.60
2021,04,27,01,00,-1.60
2021,04,27,01,01,-1.60
2021,04,27,01,02,-1.70
2021,04,27,01,03,-1.70
2021,04,27,01,04,-1.70
2021,04,27,01,05,-1.70
2021,04,27,01,06,-1.80
2021,04,27,01,07,-1.80
2021,04,27,01,08,-1.90
2021,04,27,01,09,-2.00
2021,04,27,01,10,-2.00
2021,04,27,01,11,-2.10
2021,04,27,01,12,-2.20
2021,04,27,01,13,-2.20
2021,04,27,01,14,-2.30
2021,04,27,01,15,-2.30
2021,04,27,01,16,-2.40
2021,04,27,01,17,-2.40
2021,04,27,01,18,-2.50
2021,04,27,01,19,-2.60
2021,04,27,01,20,-2.60
2021,04,27,01,21,-2.70
2021,04,27,01,22,-2.70
2021,04,27,01,23,-2.70
2021,04,27,01,24,-2.70
2021,04,27,01,25,-2.60
2021,04,27,01,26,-2.60
2021,04,27,01,27,-2.60
2021,04,27,01,28,-2.50
2021,04,27,01,29,-2.50
2021,04,27,01,30,-2.40
2021,04,27,01,31,-2.40
2021,04,27,01,32,-2.40
2021,04,27,01,33,-2.40
2021,04,27,01,34,-2.40
2021,04,27,01,35,-2.40
2021,04,27,01,36,-2.40
2021,04,27,01,37,-2.50
2021,04,27,01,38,-2.50
2021,04,27,01,39,-2.50
2021,04,27,01,40,-2.50
2021,04,27,01,41,-2.50
2021,04,27,01,42,-2.50
2021,04,27,01,43,-2.50
2021,04,27,01,44,-2.50
2021,04,27,01,45,-2.60
2021,04,27,01,46,-2.60
2021,04,27,01,47,-2.60
2021,04,27,01,48,-2.60
2021,04,27,01,49,-2.70
2021,04,27,01,50,-2.70
2021,04,27,01,51,-2.70
2021,04,27,01,52,-2.80
2021,04,27,01,53,-2.80
2021,04,27,01,54,-2.80
2021,04,27,01,55,-2.80
2021,04,27,01,56,-2.80
2021,04,27,01,57,-2.80
2021,04,27,01,58,-2.80
2021,04,27,01,59,-2.70
2021,04,27,02,00,-2.70
2021,04,27,02,01,-2.70
2021,04,27,02,02,-2.70
2021,04,27,02,03,-2.70
2021,04,27,02,04,-2.60
2021,04,27,02,05,-2.60
2021,04,27,02,06,-2.60
2021,04,27,02,07,-2.60
2021,04,27,02,08,-2.60
2021,04,27,02,09,-2.60
2021,04,27,02,10,-2.60
2021,04,27,02,11,-2.60
2021,04,27,02,12,-2.60
2021,04,27,02,13,-2.60
2021,04,27,02,14,-2.60
2021,04,27,02,15,-2.60
2021,04,27,02,16,-2.70
2021,04,27,02,17,-2.70
2021,04,27,02,18,-2.70
2021,04,27,02,19,-2.70
2021,04,27,02,20,-2.70
2021,04,27,02,21,-2.70
2021,04,27,02,22,-2.70
2021,04,27,02,23,-2.70
2021,04,27,02,24,-2.70
2021,04,27,02,25,-2.70
2021,04,27,02,26,-2.80
2021,04,27,02,27,-2.80
2021,04,27,02,28,-2.80
2021,04,27,02,29,-2.80
2021,04,27,02,30,-2.80
2021,04,27,02,31,-2.80
2021,04,27,02,32,-2.80
2021,04,27,02,33,-2.80
2021,04,27,02,34,-2.80
2021,04,27,02,35,-2.80
2021,04,27,02,36,-2.90
2021,04,27,02,37,-2.90
2021,04,27,02,38,-3.00
2021,04,27,02,39,-3.10
2021,04,27,02,40,-3.20
2021,04,27,02,41,-3.20
2021,04,27,02,42,-3.30
2021,04,27,02,43,-3.40
2021,04,27,02,44,-3.50
2021,04,27,02,45,-3.50
2021,04,27,02,46,-3.60
2021,04,27,02,47,-3.70
2021,04,27,02,48,-3.70
2021,04,27,02,49,-3.80
2021,04,27,02,50,-3.80
2021,04,27,02,51,-3.80
2021,04,27,02,52,-3.90
2021,04,27,02,53,-3.90
2021,04,27,02,54,-3.90
2021,04,27,02,55,-4.00
2021,04,27,02,56,-4.00
2021,04,27,02,57,-4.10
2021,04,27,02,58,-4.10
2021,04,27,02,59,-4.20
2021,04,27,03,00,-4.20
2021,04,27,03,01,-4.30
2021,04,27,03,02,-4.30
2021,04,27,03,03,-4.30
2021,04,27,03,04,-4.40
2021,04,27,03,05,-4.40
2021,04,27,03,06,-4.50
2021,04,27,03,07,-4.50
2021,04,27,03,08,-4.60
2021,04,27,03,09,-4.60
2021,04,27,03,10,-4.60
2021,04,27,03,11,-4.70
2021,04,27,03,12,-4.70
2021,04,27,03,13,-4.70
2021,04,27,03,14,-4.80
2021,04,27,03,15,-4.80
2021,04,27,03,16,-4.80
2021,04,27,03,17,-4.80
2021,04,27,03,18,-4.80
2021,04,27,03,19,-4.80
2021,04,27,03,20,-4.80
2021,04,27,03,21,-4.90
2021,04,27,03,22,-4.90
2021,04,27,03,23,-4.90
2021,04,27,03,24,-4.90
2021,04,27,03,25,-4.90
2021,04,27,03,26,-5.00
2021,04,27,03,27,-5.00
2021,04,27,03,28,-5.00
2021,04,27,03,29,-5.00
2021,04,27,03,30,-5.10
2021,04,27,03,31,-5.10
2021,04,27,03,32,-5.10
2021,04,27,03,33,-5.10
2021,04,27,03,34,-5.10
2021,04,27,03,35,-5.10
2021,04,27,03,36,-5.20
2021,04,27,03,37,-5.20
2021,04,27,03,38,-5.20
2021,04,27,03,39,-5.20
2021,04,27,03,40,-5.20
2021,04,27,03,41,-5.20
2021,04,27,03,42,-5.20
2021,04,27,03,43,-5.20
2021,04,27,03,44,-5.20
2021,04,27,03,45,-5.30
2021,04,27,03,46,-5.30
2021,04,27,03,47,-5.30
2021,04,27,03,48,-5.30
2021,04,27,03,49,-5.30
2021,04,27,03,50,-5.30
2021,04,27,03,51,-5.40
2021,04,27,03,52,-5.40
2021,04,27,03,53,-5.40
2021,04,27,03,54,-5.40
2021,04,27,03,55,-5.40
2021,04,27,03,56,-5.50
2021,04,27,03,57,-5.50
2021,04,27,03,58,-5.50
2021,04,27,03,59,-5.60
2021,04,27,04,00,-5.60
2021,04,27,04,01,-5.60
2021,04,27,04,02,-5.60
2021,04,27,04,03,-5.60
2021,04,27,04,04,-5.60
2021,04,27,04,05,-5.60
2021,04,27,04,06,-5.60
2021,04,27,04,07,-5.70
2021,04,27,04,08,-5.70
2021,04,27,04,09,-5.70
2021,04,27,04,10,-5.70
2021,04,27,04,11,-5.70
2021,04,27,04,12,-5.70
2021,04,27,04,13,-5.70
2021,04,27,04,14,-5.70
2021,04,27,04,15,-5.70
2021,04,27,04,16,-5.70
2021,04,27,04,17,-5.70
2021,04,27,04,18,-5.70
2021,04,27,04,19,-5.80
2021,04,27,04,20,-5.80
2021,04,27,04,21,-5.80
2021,04,27,04,22,-5.80
2021,04,27,04,23,-5.80
2021,04,27,04,24,-5.90
2021,04,27,04,25,-5.90
2021,04,27,04,26,-5.90
2021,04,27,04,27,-5.90
2021,04,27,04,28,-5.90
2021,04,27,04,29,-6.00
2021,04,27,04,30,-6.00
2021,04,27,04,31,-6.00
2021,04,27,04,32,-6.00
2021,04,27,04,33,-6.00
2021,04,27,04,34,-6.00
2021,04,27,04,35,-6.00
2021,04,27,04,36,-6.00
2021,04,27,04,37,-6.10
2021,04,27,04,38,-6.10
2021,04,27,04,39,-6.10
2021,04,27,04,40,-6.10
2021,04,27,04,41,-6.10
2021,04,27,04,42,-6.10
2021,04,27,04,43,-6.10
2021,04,27,04,44,-6.10
2021,04,27,04,45,-6.10
2021,04,27,04,46,-6.10
2021,04,27,04,47,-6.10
2021,04,27,04,48,-6.10
2021,04,27,04,49,-6.10
2021,04,27,04,50,-6.10
2021,04,27,04,51,-6.10
2021,04,27,04,52,-6.10
2021,04,27,04,53,-6.10
2021,04,27,04,54,-6.10
2021,04,27,04,55,-6.10
2021,04,27,04,56,-6.00
2021,04,27,04,57,-6.00
2021,04,27,04,58,-6.00
2021,04,27,04,59,-6.00
2021,04,27,05,00,-6.00
2021,04,27,05,01,-6.00
2021,04,27,05,02,-6.00
2021,04,27,05,03,-6.00
2021,04,27,05,04,-5.90
2021,04,27,05,05,-5.90
2021,04,27,05,06,-5.90
2021,04,27,05,07,-5.90
2021,04,27,05,08,-5.90
2021,04,27,05,09,-5.90
2021,04,27,05,10,-6.00
2021,04,27,05,11,-6.00
2021,04,27,05,12,-6.00
2021,04,27,05,13,-6.00
2021,04,27,05,14,-6.00
2021,04,27,05,15,-6.00
2021,04,27,05,16,-6.00
2021,04,27,05,17,-6.00
2021,04,27,05,18,-6.00
2021,04,27,05,19,-6.00
2021,04,27,05,20,-6.00
2021,04,27,05,21,-6.00
2021,04,27,05,22,-6.00
2021,04,27,05,23,-6.00
2021,04,27,05,24,-6.10
2021,04,27,05,25,-6.00
2021,04,27,05,26,-6.10
2021,04,27,05,27,-6.10
2021,04,27,05,28,-6.10
2021,04,27,05,29,-6.10
2021,04,27,05,30,-6.10
2021,04,27,05,31,-6.10
2021,04,27,05,32,-6.10
2021,04,27,05,33,-6.10
2021,04,27,05,34,-6.10
2021,04,27,05,35,-6.10
2021,04,27,05,36,-6.10
2021,04,27,05,37,-6.10
2021,04,27,05,38,-6.20
2021,04,27,05,39,-6.20
2021,04,27,05,40,-6.20
2021,04,27,05,41,-6.20
2021,04,27,05,42,-6.20
2021,04,27,05,43,-6.20
2021,04,27,05,44,-6.30
2021,04,27,05,45,-6.30
2021,04,27,05,46,-6.30
2021,04,27,05,47,-6.30
2021,04,27,05,48,-6.30
2021,04,27,05,49,-6.30
2021,04,27,05,50,-6.30
2021,04,27,05,51,-6.30
2021,04,27,05,52,-6.40
2021,04,27,05,53,-6.40
2021,04,27,05,54,-6.40
2021,04,27,05,55,-6.40
2021,04,27,05,56,-6.50
2021,04,27,05,57,-6.50
2021,04,27,05,58,-6.50
2021,04,27,05,59,-6.50
2021,04,27,06,00,-6.50
2021,04,27,06,01,-6.50
2021,04,27,06,02,-6.60
2021,04,27,06,03,-6.60
2021,04,27,06,04,-6.60
2021,04,27,06,05,-6.60
2021,04,27,06,06,-6.60
2021,04,27,06,07,-6.60
2021,04,27,06,08,-6.60
2021,04,27,06,09,-6.60
2021,04,27,06,10,-6.70
2021,04,27,06,11,-6.70
2021,04,27,06,12,-6.70
2021,04,27,06,13,-6.70
2021,04,27,06,14,-6.70
2021,04,27,06,15,-6.70
2021,04,27,06,16,-6.70
2021,04,27,06,17,-6.70
2021,04,27,06,18,-6.70
2021,04,27,06,19,-6.70
2021,04,27,06,20,-6.70
2021,04,27,06,21,-6.70
2021,04,27,06,22,-6.70
2021,04,27,06,23,-6.70
2021,04,27,06,24,-6.70
2021,04,27,06,25,-6.70
2021,04,27,06,26,-6.70
2021,04,27,06,27,-6.70
2021,04,27,06,28,-6.70
2021,04,27,06,29,-6.70
2021,04,27,06,30,-6.70
2021,04,27,06,31,-6.70
2021,04,27,06,32,-6.70
2021,04,27,06,33,-6.70
2021,04,27,06,34,-6.70
2021,04,27,06,35,-6.70
2021,04,27,06,36,-6.70
2021,04,27,06,37,-6.70
2021,04,27,06,38,-6.70
2021,04,27,06,39,-6.70
2021,04,27,06,40,-6.70
2021,04,27,06,41,-6.70
2021,04,27,06,42,-6.70
2021,04,27,06,43,-6.70
2021,04,27,06,44,-6.70
2021,04,27,06,45,-6.70
2021,04,27,06,46,-6.70
2021,04,27,06,47,-6.70
2021,04,27,06,48,-6.70
2021,04,27,06,49,-6.70
2021,04,27,06,50,-6.70
2021,04,27,06,51,-6.70
2021,04,27,06,52,-6.70
2021,04,27,06,53,-6.70
2021,04,27,06,54,-6.70
2021,04,27,06,55,-6.70
2021,04,27,06,56,-6.70
2021,04,27,06,57,-6.70
2021,04,27,06,58,-6.70
2021,04,27,06,59,-6.70
2021,04,27,07,00,-6.70
2021,04,27,07,01,-6.70
2021,04,27,07,02,-6.70
2021,04,27,07,03,-6.70
2021,04,27,07,04,-6.70
2021,04,27,07,05,-6.70
2021,04,27,07,06,-6.70
2021,04,27,07,07,-6.70
2021,04,27,07,08,-6.70
2021,04,27,07,09,-6.70
2021,04,27,07,10,-6.70
2021,04,27,07,11,-6.70
2021,04,27,07,12,-6.80
2021,04,27,07,13,-6.80
2021,04,27,07,14,-6.80
2021,04,27,07,15,-6.80
2021,04,27,07,16,-6.80
2021,04,27,07,17,-6.80
2021,04,27,07,18,-6.80
2021,04,27,07,19,-6.80
2021,04,27,07,20,-6.90
2021,04,27,07,21,-6.90
2021,04,27,07,22,-6.90
2021,04,27,07,23,-6.90
2021,04,27,07,24,-6.90
2021,04,27,07,25,-6.90
2021,04,27,07,26,-6.90
2021,04,27,07,27,-6.90
2021,04,27,07,28,-6.90
2021,04,27,07,29,-6.90
2021,04,27,07,30,-6.90
2021,04,27,07,31,-6.90
2021,04,27,07,32,-6.80
2021,04,27,07,33,-6.80
2021,04,27,07,34,-6.80
2021,04,27,07,35,-6.90
2021,04,27,07,36,-6.90
2021,04,27,07,37,-6.90
2021,04,27,07,38,-6.90
2021,04,27,07,39,-6.90
2021,04,27,07,40,-6.90
2021,04,27,07,41,-6.90
2021,04,27,07,42,-6.90
2021,04,27,07,43,-6.90
2021,04,27,07,44,-6.90
2021,04,27,07,45,-6.80
2021,04,27,07,46,-6.80
2021,04,27,07,47,-6.80
2021,04,27,07,48,-6.80
2021,04,27,07,49,-6.80
2021,04,27,07,50,-6.80
2021,04,27,07,51,-6.80
2021,04,27,07,52,-6.80
2021,04,27,07,53,-6.80
2021,04,27,07,54,-6.80
2021,04,27,07,55,-6.80
2021,04,27,07,56,-6.80
2021,04,27,07,57,-6.80
2021,04,27,07,58,-6.80
2021,04,27,07,59,-6.70
2021,04,27,08,00,-6.70
2021,04,27,08,01,-6.70
2021,04,27,08,02,-6.70
2021,04,27,08,03,-6.70
2021,04,27,08,04,-6.70
2021,04,27,08,05,-6.70
2021,04,27,08,06,-6.70
2021,04,27,08,07,-6.60
2021,04,27,08,08,-6.60
2021,04,27,08,09,-6.60
2021,04,27,08,10,-6.60
2021,04,27,08,11,-6.60
2021,04,27,08,12,-6.60
2021,04,27,08,13,-6.60
2021,04,27,08,14,-6.50
2021,04,27,08,15,-6.50
2021,04,27,08,16,-6.50
2021,04,27,08,17,-6.50
2021,04,27,08,18,-6.50
2021,04,27,08,19,-6.50
2021,04,27,08,20,-6.40
2021,04,27,08,21,-6.40
2021,04,27,08,22,-6.40
2021,04,27,08,23,-6.40
2021,04,27,08,24,-6.40
2021,04,27,08,25,-6.40
2021,04,27,08,26,-6.40
2021,04,27,08,27,-6.40
2021,04,27,08,28,-6.30
2021,04,27,08,29,-6.30
2021,04,27,08,30,-6.30
2021,04,27,08,31,-6.30
2021,04,27,08,32,-6.30
2021,04,27,08,33,-6.30
2021,04,27,08,34,-6.30
2021,04,27,08,35,-6.30
2021,04,27,08,36,-6.30
2021,04,27,08,37,-6.30
2021,04,27,08,38,-6.30
2021,04,27,08,39,-6.30
2021,04,27,08,40,-6.30
2021,04,27,08,41,-6.30
2021,04,27,08,42,-6.30
2021,04,27,08,43,-6.30
2021,04,27,08,44,-6.30
2021,04,27,08,45,-6.20
2021,04,27,08,46,-6.20
2021,04,27,08,47,-6.20
2021,04,27,08,48,-6.20
2021,04,27,08,49,-6.20
2021,04,27,08,50,-6.20
2021,04,27,08,51,-6.20
2021,04,27,08,52,-6.20
2021,04,27,08,53,-6.10
2021,04,27,08,54,-6.10
2021,04,27,08,55,-6.10
2021,04,27,08,56,-6.10
2021,04,27,08,57,-6.00
2021,04,27,08,58,-6.00
2021,04,27,08,59,-5.90
2021,04,27,09,00,-5.80
2021,04,27,09,01,-5.80
2021,04,27,09,02,-5.70
2021,04,27,09,03,-5.60
2021,04,27,09,04,-5.50
2021,04,27,09,05,-5.40
2021,04,27,09,06,-5.30
2021,04,27,09,07,-5.20
2021,04,27,09,08,-5.10
2021,04,27,09,09,-5.00
2021,04,27,09,10,-4.90
2021,04,27,09,11,-4.80
2021,04,27,09,12,-4.70
2021,04,27,09,13,-4.60
2021,04,27,09,14,-4.50
2021,04,27,09,15,-4.40
2021,04,27,09,16,-4.30
2021,04,27,09,17,-4.20
2021,04,27,09,18,-4.00
2021,04,27,09,19,-3.90
2021,04,27,09,20,-3.80
2021,04,27,09,21,-3.80
2021,04,27,09,22,-3.70
2021,04,27,09,23,-3.60
2021,04,27,09,24,-3.60
2021,04,27,09,25,-3.50
2021,04,27,09,26,-3.40
2021,04,27,09,27,-3.30
2021,04,27,09,28,-3.30
2021,04,27,09,29,-3.20
2021,04,27,09,30,-3.10
2021,04,27,09,31,-3.10
2021,04,27,09,32,-3.10
2021,04,27,09,33,-3.00
2021,04,27,09,34,-3.00
2021,04,27,09,35,-2.90
2021,04,27,09,36,-2.80
2021,04,27,09,37,-2.70
2021,04,27,09,38,-2.70
2021,04,27,09,39,-2.60
2021,04,27,09,40,-2.50
2021,04,27,09,41,-2.30
2021,04,27,09,42,-2.20
2021,04,27,09,43,-2.10
2021,04,27,09,44,-2.00
2021,04,27,09,45,-1.90
2021,04,27,09,46,-1.80
2021,04,27,09,47,-1.80
2021,04,27,09,48,-1.70
2021,04,27,09,49,-1.70
2021,04,27,09,50,-1.60
2021,04,27,09,51,-1.50
2021,04,27,09,52,-1.40
2021,04,27,09,53,-1.40
2021,04,27,09,54,-1.30
2021,04,27,09,55,-1.30
2021,04,27,09,56,-1.30
2021,04,27,09,57,-1.30
2021,04,27,09,58,-1.20
2021,04,27,09,59,-1.20
2021,04,27,10,00,-1.20
2021,04,27,10,01,-1.20
2021,04,27,10,02,-1.20
2021,04,27,10,03,-1.20
2021,04,27,10,04,-1.20
2021,04,27,10,05,-1.20
2021,04,27,10,06,-1.20
2021,04,27,10,07,-1.20
2021,04,27,10,08,-1.20
2021,04,27,10,09,-1.20
2021,04,27,10,10,-1.20
2021,04,27,10,11,-1.20
2021,04,27,10,12,-1.20
2021,04,27,10,13,-1.20
2021,04,27,10,14,-1.20
2021,04,27,10,15,-1.20
2021,04,27,10,16,-1.20
2021,04,27,10,17,-1.20
2021,04,27,10,18,-1.20
2021,04,27,10,19,-1.20
2021,04,27,10,20,-1.10
2021,04,27,10,21,-1.10
2021,04,27,10,22,-1.00
2021,04,27,10,23,-1.00
2021,04,27,10,24,-0.90
2021,04,27,10,25,-1.00
2021,04,27,10,26,-1.00
2021,04,27,10,27,-0.90
2021,04,27,10,28,-0.90
2021,04,27,10,29,-0.90
2021,04,27,10,30,-0.90
2021,04,27,10,31,-0.90
2021,04,27,10,32,-0.90
2021,04,27,10,33,-0.90
2021,04,27,10,34,-0.90
2021,04,27,10,35,-0.90
2021,04,27,10,36,-0.90
2021,04,27,10,37,-0.90
2021,04,27,10,38,-0.90
2021,04,27,10,39,-0.90
2021,04,27,10,40,-0.90
2021,04,27,10,41,-0.80
2021,04,27,10,42,-0.80
2021,04,27,10,43,-0.70
2021,04,27,10,44,-0.70
2021,04,27,10,45,-0.60
2021,04,27,10,46,-0.60
2021,04,27,10,47,-0.60
2021,04,27,10,48,-0.70
2021,04,27,10,49,-0.60
2021,04,27,10,50,-0.60
2021,04,27,10,51,-0.60
2021,04,27,10,52,-0.60
2021,04,27,10,53,-0.50
2021,04,27,10,54,-0.50
2021,04,27,10,55,-0.40
2021,04,27,10,56,-0.40
2021,04,27,10,57,-0.40
2021,04,27,10,58,-0.40
2021,04,27,10,59,-0.40
2021,04,27,11,00,-0.40
2021,04,27,11,01,-0.30
2021,04,27,11,02,-0.40
2021,04,27,11,03,-0.40
2021,04,27,11,04,-0.40
2021,04,27,11,05,-0.40
2021,04,27,11,06,-0.40
2021,04,27,11,07,-0.30
2021,04,27,11,08,-0.30
2021,04,27,11,09,-0.30
2021,04,27,11,10,-0.40
2021,04,27,11,11,-0.40
2021,04,27,11,12,-0.40
2021,04,27,11,13,-0.30
2021,04,27,11,14,-0.30
2021,04,27,11,15,-0.30
2021,04,27,11,16,-0.30
2021,04,27,11,17,-0.20
2021,04,27,11,18,-0.20
2021,04,27,11,19,-0.20
2021,04,27,11,20,-0.20
2021,04,27,11,21,-0.30
2021,04,27,11,22,-0.30
2021,04,27,11,23,-0.30
2021,04,27,11,24,-0.20
2021,04,27,11,25,-0.20
2021,04,27,11,26,-0.30
2021,04,27,11,27,-0.30
2021,04,27,11,28,-0.30
2021,04,27,11,29,-0.30
2021,04,27,11,30,-0.30
2021,04,27,11,31,-0.20
2021,04,27,11,32,-0.20
2021,04,27,11,33,-0.10
2021,04,27,11,34,-0.10
2021,04,27,11,35,0.00
2021,04,27,11,36,0.10
2021,04,27,11,37,0.10
2021,04,27,11,38,0.10
2021,04,27,11,39,0.10
2021,04,27,11,40,0.00
2021,04,27,11,41,0.10
2021,04,27,11,42,0.10
2021,04,27,11,43,0.20
2021,04,27,11,44,0.20
2021,04,27,11,45,0.20
2021,04,27,11,46,0.20
2021,04,27,11,47,0.20
2021,04,27,11,48,0.20
2021,04,27,11,49,0.30
2021,04,27,11,50,0.40
2021,04,27,11,51,0.40
2021,04,27,11,52,0.50
2021,04,27,11,53,0.50
2021,04,27,11,54,0.50
2021,04,27,11,55,0.40
2021,04,27,11,56,0.30
2021,04,27,11,57,0.20
2021,04,27,11,58,0.20
2021,04,27,11,59,0.30
2021,04,27,12,00,0.40
2021,04,27,12,01,0.40
2021,04,27,12,02,0.50
2021,04,27,12,03,0.50
2021,04,27,12,04,0.60
2021,04,27,12,05,0.60
2021,04,27,12,06,0.70
2021,04,27,12,07,0.70
2021,04,27,12,08,0.80
2021,04,27,12,09,0.80
2021,04,27,12,10,0.90
2021,04,27,12,11,0.90
2021,04,27,12,12,0.90
2021,04,27,12,13,0.90
2021,04,27,12,14,0.90
2021,04,27,12,15,0.90
2021,04,27,12,16,1.00
2021,04,27,12,17,1.10
2021,04,27,12,18,1.10
2021,04,27,12,19,1.10
2021,04,27,12,20,1.10
2021,04,27,12,21,1.20
2021,04,27,12,22,1.20
2021,04,27,12,23,1.10
2021,04,27,12,24,1.00
2021,04,27,12,25,0.90
2021,04,27,12,26,0.90
2021,04,27,12,27,0.90
2021,04,27,12,28,0.90
2021,04,27,12,29,0.90
2021,04,27,12,30,0.90
2021,04,27,12,31,0.90
2021,04,27,12,32,0.90
2021,04,27,12,33,0.90
2021,04,27,12,34,0.90
2021,04,27,12,35,0.90
2021,04,27,12,36,0.90
2021,04,27,12,37,0.90
2021,04,27,12,38,1.00
2021,04,27,12,39,1.00
2021,04,27,12,40,1.10
2021,04,27,12,41,1.20
2021,04,27,12,42,1.30
2021,04,27,12,43,1.40
2021,04,27,12,44,1.50
2021,04,27,12,45,1.50
2021,04,27,12,46,1.60
2021,04,27,12,47,1.60
2021,04,27,12,48,1.50
2021,04,27,12,49,1.50
2021,04,27,12,50,1.40
2021,04,27,12,51,1.50
2021,04,27,12,52,1.50
2021,04,27,12,53,1.60
2021,04,27,12,54,1.60
2021,04,27,12,55,1.60
2021,04,27,12,56,1.60
2021,04,27,12,57,1.60
2021,04,27,12,58,1.60
2021,04,27,12,59,1.60
2021,04,27,13,00,1.60
2021,04,27,13,01,1.60
2021,04,27,13,02,1.70
2021,04,27,13,03,1.70
2021,04,27,13,04,1.70
2021,04,27,13,05,1.70
2021,04,27,13,06,1.70
2021,04,27,13,07,1.80
2021,04,27,13,08,1.80
2021,04,27,13,09,1.70
2021,04,27,13,10,1.70
2021,04,27,13,11,1.60
2021,04,27,13,12,1.70
2021,04,27,13,13,1.70
2021,04,27,13,14,1.70
2021,04,27,13,15,1.70
2021,04,27,13,16,1.80
2021,04,27,13,17,1.80
2021,04,27,13,18,1.80
2021,04,27,13,19,1.80
2021,04,27,13,20,1.80
2021,04,27,13,21,1.80
2021,04,27,13,22,1.90
2021,04,27,13,23,1.90
2021,04,27,13,24,1.90
2021,04,27,13,25,2.00
2021,04,27,13,26,2.10
2021,04,27,13,27,2.10
2021,04,27,13,28,2.20
2021,04,27,13,29,2.20
2021,04,27,13,30,2.30
2021,04,27,13,31,2.30
2021,04,27,13,32,2.30
2021,04,27,13,33,2.30
2021,04,27,13,34,2.20
2021,04,27,13,35,2.20
2021,04,27,13,36,2.30
2021,04,27,13,37,2.30
2021,04,27,13,38,2.30
2021,04,27,13,39,2.30
2021,04,27,13,40,2.20
2021,04,27,13,41,2.20
2021,04,27,13,42,2.20
2021,04,27,13,43,2.20
2021,04,27,13,44,2.20
2021,04,27,13,45,2.30
2021,04,27,13,46,2.40
2021,04,27,13,47,2.50
2021,04,27,13,48,2.60
2021,04,27,13,49,2.70
2021,04,27,13,50,2.70
2021,04,27,13,51,2.80
2021,04,27,13,52,2.80
2021,04,27,13,53,2.80
2021,04,27,13,54,2.80
2021,04,27,13,55,2.80
2021,04,27,13,56,2.80
2021,04,27,13,57,2.80
2021,04,27,13,58,2.80
2021,04,27,13,59,2.80
2021,04,27,14,00,2.90
2021,04,27,14,01,2.90
2021,04,27,14,02,2.90
2021,04,27,14,03,2.90
2021,04,27,14,04,2.90
2021,04,27,14,05,2.90
2021,04,27,14,06,2.90
2021,04,27,14,07,3.00
2021,04,27,14,08,3.00
2021,04,27,14,09,3.10
2021,04,27,14,10,3.10
2021,04,27,14,11,3.10
2021,04,27,14,12,3.10
2021,04,27,14,13,3.10
2021,04,27,14,14,3.00
2021,04,27,14,15,2.90
2021,04,27,14,16,2.80
2021,04,27,14,17,2.80
2021,04,27,14,18,2.80
2021,04,27,14,19,2.80
2021,04,27,14,20,2.80
2021,04,27,14,21,2.90
2021,04,27,14,22,2.90
2021,04,27,14,23,3.00
2021,04,27,14,24,3.00
2021,04,27,14,25,3.10
2021,04,27,14,26,3.10
2021,04,27,14,27,3.10
2021,04,27,14,28,3.10
2021,04,27,14,29,3.10
2021,04,27,14,30,3.10
2021,04,27,14,31,3.10
2021,04,27,14,32,3.10
2021,04,27,14,33,3.10
2021,04,27,14,34,3.10
2021,04,27,14,35,3.20
2021,04,27,14,36,3.20
2021,04,27,14,37,3.20
2021,04,27,14,38,3.20
2021,04,27,14,39,3.20
2021,04,27,14,40,3.20
2021,04,27,14,41,3.20
2021,04,27,14,42,3.30
2021,04,27,14,43,3.30
2021,04,27,14,44,3.30
2021,04,27,14,45,3.40
2021,04,27,14,46,3.40
2021,04,27,14,47,3.40
2021,04,27,14,48,3.40
2021,04,27,14,49,3.50
2021,04,27,14,50,3.50
2021,04,27,14,51,3.60
2021,04,27,14,52,3.60
2021,04,27,14,53,3.60
2021,04,27,14,54,3.60
2021,04,27,14,55,3.70
2021,04,27,14,56,3.70
2021,04,27,14,57,3.70
2021,04,27,14,58,3.70
2021,04,27,14,59,3.80
2021,04,27,15,00,3.80
2021,04,27,15,01,3.80
2021,04,27,15,02,3.80
2021,04,27,15,03,3.80
2021,04,27,15,04,3.80
2021,04,27,15,05,3.80
2021,04,27,15,06,3.80
2021,04,27,15,07,3.80
2021,04,27,15,08,3.80
2021,04,27,15,09,3.80
2021,04,27,15,10,3.80
2021,04,27,15,11,3.70
2021,04,27,15,12,3.70
2021,04,27,15,13,3.80
2021,04,27,15,14,3.80
2021,04,27,15,15,3.80
2021,04,27,15,16,3.80
2021,04,27,15,17,3.80
2021,04,27,15,18,3.80
2021,04,27,15,19,3.90
2021,04,27,15,20,3.90
2021,04,27,15,21,3.90
2021,04,27,15,22,3.90
2021,04,27,15,23,3.90
2021,04,27,15,24,3.90
2021,04,27,15,25,3.90
2021,04,27,15,26,3.80
2021,04,27,15,27,3.80
2021,04,27,15,28,3.80
2021,04,27,15,29,3.80
2021,04,27,15,30,3.80
2021,04,27,15,31,3.90
2021,04,27,15,32,3.90
2021,04,27,15,33,4.00
2021,04,27,15,34,4.00
2021,04,27,15,35,4.10
2021,04,27,15,36,4.10
2021,04,27,15,37,4.10
2021,04,27,15,38,4.20
2021,04,27,15,39,4.20
2021,04,27,15,40,4.20
2021,04,27,15,41,4.20
2021,04,27,15,42,4.20
2021,04,27,15,43,4.20
2021,04,27,15,44,4.20
2021,04,27,15,45,4.20
2021,04,27,15,46,4.10
2021,04,27,15,47,4.10
2021,04,27,15,48,4.00
2021,04,27,15,49,4.00
2021,04,27,15,50,4.10
2021,04,27,15,51,4.10
2021,04,27,15,52,4.10
2021,04,27,15,53,4.20
2021,04,27,15,54,4.20
2021,04,27,15,55,4.20
2021,04,27,15,56,4.20
2021,04,27,15,57,4.30
2021,04,27,15,58,4.30
2021,04,27,15,59,4.30
2021,04,27,16,00,4.30
2021,04,27,16,01,4.30
2021,04,27,16,02,4.30
2021,04,27,16,03,4.30
2021,04,27,16,04,4.30
2021,04,27,16,05,4.30
2021,04,27,16,06,4.30
2021,04,27,16,07,4.40
2021,04,27,16,08,4.40
2021,04,27,16,09,4.40
2021,04,27,16,10,4.40
2021,04,27,16,11,4.40
2021,04,27,16,12,4.40
2021,04,27,16,13,4.40
2021,04,27,16,14,4.40
2021,04,27,16,15,4.40
2021,04,27,16,16,4.30
2021,04,27,16,17,4.30
2021,04,27,16,18,4.30
2021,04,27,16,19,4.30
2021,04,27,16,20,4.30
2021,04,27,16,21,4.40
2021,04,27,16,22,4.40
2021,04,27,16,23,4.40
2021,04,27,16,24,4.50
2021,04,27,16,25,4.50
2021,04,27,16,26,4.50
2021,04,27,16,27,4.50
2021,04,27,16,28,4.50
2021,04,27,16,29,4.60
2021,04,27,16,30,4.60
2021,04,27,16,31,4.60
2021,04,27,16,32,4.70
2021,04,27,16,33,4.70
2021,04,27,16,34,4.70
2021,04,27,16,35,4.70
2021,04,27,16,36,4.70
2021,04,27,16,37,4.70
2021,04,27,16,38,4.60
2021,04,27,16,39,4.60
2021,04,27,16,40,4.60
2021,04,27,16,41,4.60
2021,04,27,16,42,4.60
2021,04,27,16,43,4.60
2021,04,27,16,44,4.60
2021,04,27,16,45,4.70
2021,04,27,16,46,4.70
2021,04,27,16,47,4.60
2021,04,27,16,48,4.60
2021,04,27,16,49,4.50
2021,04,27,16,50,4.50
2021,04,27,16,51,4.50
2021,04,27,16,52,4.50
2021,04,27,16,53,4.50
2021,04,27,16,54,4.60
2021,04,27,16,55,4.60
2021,04,27,16,56,4.60
2021,04,27,16,57,4.60
2021,04,27,16,58,4.70
2021,04,27,16,59,4.70
2021,04,27,17,00,4.80
2021,04,27,17,01,4.70
2021,04,27,17,02,4.70
2021,04,27,17,03,4.70
2021,04,27,17,04,4.60
2021,04,27,17,05,4.60
2021,04,27,17,06,4.60
2021,04,27,17,07,4.70
2021,04,27,17,08,4.70
2021,04,27,17,09,4.70
2021,04,27,17,10,4.70
2021,04,27,17,11,4.80
2021,04,27,17,12,4.70
2021,04,27,17,13,4.70
2021,04,27,17,14,4.70
2021,04,27,17,15,4.70
2021,04,27,17,16,4.70
2021,04,27,17,17,4.70
2021,04,27,17,18,4.80
2021,04,27,17,19,4.80
2021,04,27,17,20,4.80
2021,04,27,17,21,4.80
2021,04,27,17,22,4.80
2021,04,27,17,23,4.80
2021,04,27,17,24,4.90
2021,04,27,17,25,4.90
2021,04,27,17,26,5.00
2021,04,27,17,27,5.00
2021,04,27,17,28,5.00
2021,04,27,17,29,5.00
2021,04,27,17,30,5.10
2021,04,27,17,31,5.10
2021,04,27,17,32,5.10
2021,04,27,17,33,5.10
2021,04,27,17,34,5.10
2021,04,27,17,35,5.00